Weather History for Buffalo, WY

Change the Weather History Date:

Wednesday, September 25, 2013

  Actual Average Record
Temperature  
Mean Temperature 51 °F 54 °F  
Max Temperature 59 °F 66 °F 93 °F (2014)
Min Temperature 43 °F 41 °F 33 °F (2007)
Degree Days  
Heating Degree Days 14 12  
Month to date heating degree days 61 183  
Since 1 July heating degree days 62 248  
Cooling Degree Days 0 0  
Month to date cooling degree days 95 44  
Year to date cooling degree days 709 490  
Growing Degree Days 1 (Base 50)    
Moisture  
Dew Point 39 °F    
Average Humidity 62    
Maximum Humidity 92    
Minimum Humidity 32    
Precipitation  
Precipitation 0.11 in 0.05 in 0.11 in (2013)
Month to date precipitation 2.14 1.02  
Year to date precipitation 6.56 11.29  
Sea Level Pressure  
Sea Level Pressure 29.63 in    
Wind  
Wind Speed 10 mph (NNW)    
Max Wind Speed 24 mph    
Max Gust Speed 37 mph    
Visibility 10 miles    
Events Rain , Thunderstorm    
T = Trace of Precipitation, MM = Missing Value Source: NWS Daily Summary

Daily Weather History Graph

Daily Weather History Graph

Search for Another Location

Airport:

Trip Planner

Search our weather history database for the weather conditions in past years. The results will help you decide how hot, cold, wet, or windy it might be!

Date:

Astronomy

Sep. 25, 2013 Rise Set
Actual Time 6:57 AM MDT 6:58 PM MDT
Civil Twilight 6:28 AM MDT 7:27 PM MDT
Nautical Twilight 5:55 AM MDT 8:00 PM MDT
Astronomical Twilight 5:20 AM MDT 8:35 PM MDT
Moon 10:55 PM MDT (9/25) 1:17 PM MDT (9/25)
Length of Visible Light 12h 58m
Length of Day
12h 00m
Waning Gibbous, 63% of the Moon is Illuminated
Sep 25
Waning Gibbous
Sep 26
Last Quarter
Oct 4
New
Oct 11
First Quarter
Oct 18
Full

Hourly Weather History & Observations

Time (MDT) Temp. Windchill Dew Point Humidity Pressure Visibility Wind Dir Wind Speed Gust Speed Precip Events Conditions
12:53 AM 60.1 °F - 30.0 °F 32% 29.59 in 10.0 mi Calm Calm - N/A   Clear
1:53 AM 57.0 °F - 33.1 °F 40% 29.60 in 10.0 mi West 5.8 mph - N/A   Clear
2:53 AM 53.1 °F - 35.1 °F 50% 29.60 in 10.0 mi SW 4.6 mph - N/A   Clear
3:53 AM 53.1 °F - 35.1 °F 50% 29.59 in 10.0 mi NNE 5.8 mph - N/A   Partly Cloudy
4:53 AM 53.1 °F - 36.0 °F 52% 29.58 in 10.0 mi NNW 8.1 mph - N/A   Scattered Clouds
5:53 AM 52.0 °F - 36.0 °F 54% 29.58 in 10.0 mi WNW 10.4 mph - N/A   Clear
6:53 AM 51.1 °F - 37.0 °F 59% 29.59 in 10.0 mi NNW 13.8 mph 25.3 mph N/A   Clear
7:53 AM 51.1 °F - 35.1 °F 54% 29.60 in 10.0 mi NNW 15.0 mph 25.3 mph N/A   Clear
8:53 AM 53.1 °F - 36.0 °F 52% 29.60 in 10.0 mi NNW 23.0 mph 36.8 mph N/A   Clear
9:53 AM 54.0 °F - 36.0 °F 51% 29.60 in 10.0 mi North 20.7 mph 25.3 mph N/A   Clear
10:53 AM 55.0 °F - 37.0 °F 51% 29.59 in 10.0 mi North 12.7 mph 25.3 mph N/A   Clear
11:53 AM 55.9 °F - 37.0 °F 49% 29.57 in 10.0 mi NNE 9.2 mph - N/A   Clear
12:53 PM 57.0 °F - 37.9 °F 49% 29.55 in 10.0 mi North 6.9 mph - N/A   Partly Cloudy
1:53 PM 57.9 °F - 39.9 °F 51% 29.52 in 10.0 mi Variable 3.5 mph - N/A   Scattered Clouds
2:53 PM 57.9 °F - 37.9 °F 47% 29.52 in 10.0 mi NE 10.4 mph - N/A   Mostly Cloudy
3:39 PM 55.4 °F - 37.4 °F 51% 29.63 in 10.0 mi North 9.2 mph - N/A Thunderstorm Overcast
3:53 PM 55.0 °F - 37.9 °F 53% 29.54 in 10.0 mi North 8.1 mph - N/A   Overcast
4:53 PM 54.0 °F - 42.1 °F 64% 29.54 in 10.0 mi NNW 11.5 mph - 0.00 in Rain Light Rain
5:53 PM 50.0 °F - 42.1 °F 74% 29.61 in 10.0 mi NNW 8.1 mph - 0.00 in   Overcast
6:53 PM 48.0 °F - 45.0 °F 89% 29.65 in 10.0 mi North 12.7 mph 23.0 mph 0.02 in Rain Light Rain
7:05 PM 46.4 °F 38.7 °F 44.6 °F 93% 29.72 in 10.0 mi NNW 20.7 mph 27.6 mph 0.01 in Rain Rain
7:17 PM 46.4 °F 38.5 °F 44.6 °F 93% 29.71 in 9.0 mi North 21.9 mph 27.6 mph 0.03 in Rain Light Rain
7:24 PM 46.4 °F 38.5 °F 44.6 °F 93% 29.71 in 9.0 mi NNW 21.9 mph 27.6 mph 0.03 in Rain Light Rain
7:31 PM 46.4 °F 38.3 °F 44.6 °F 93% 29.72 in 9.0 mi NNW 23.0 mph 28.8 mph 0.04 in Rain Light Rain
7:53 PM 45.0 °F 37.9 °F 43.0 °F 93% 29.66 in 10.0 mi NNW 16.1 mph 28.8 mph 0.05 in Rain Light Rain
8:30 PM 44.6 °F 38.1 °F 42.8 °F 93% 29.74 in 10.0 mi NNW 13.8 mph 24.2 mph 0.00 in   Overcast
8:53 PM 44.1 °F 37.7 °F 41.0 °F 89% 29.66 in 10.0 mi NNW 12.7 mph 23.0 mph 0.01 in Rain Light Rain
9:20 PM 44.6 °F 38.8 °F 41.0 °F 87% 29.72 in 10.0 mi NW 11.5 mph - 0.02 in Rain Light Rain
9:39 PM 42.8 °F 37.0 °F 41.0 °F 93% 29.72 in 10.0 mi NNW 10.4 mph - 0.02 in Rain Light Rain
9:53 PM 43.0 °F 37.2 °F 41.0 °F 93% 29.67 in 10.0 mi NW 10.4 mph - 0.02 in   Overcast
10:53 PM 43.0 °F 38.8 °F 39.9 °F 89% 29.66 in 10.0 mi NW 6.9 mph - 0.01 in Rain Light Rain
11:21 PM 42.8 °F - 41.0 °F 93% 29.72 in 10.0 mi Calm Calm - 0.00 in   Overcast
11:53 PM 44.1 °F 41.5 °F 41.0 °F 89% 29.65 in 10.0 mi SE 4.6 mph - 0.00 in   Overcast